This is the latest recevied weather packets stored in our database for station/object K0APR. If no packets are shown the sender has not sent any weather packets the latest 10 day(s).
| Time | Temp. | Humidity | Pressure | Rain* | Wind** | Luminosity | Snow |
|---|---|---|---|---|---|---|---|
| 1777846596 | 22.22° C | 28% | 1006.4 hPa | 0 mm | - | 367 W/m² | - |
| 1777846293 | 21.67° C | 29% | 1006.4 hPa | 0 mm | - | 393 W/m² | - |
| 1777845990 | 21.67° C | 27% | 1006.4 hPa | 0 mm | - | 393 W/m² | - |
| 1777845687 | 21.67° C | 29% | 1006.4 hPa | 0 mm | - | 253 W/m² | - |
| 1777845384 | 21.67° C | 28% | 1006.4 hPa | 0 mm | - | 57 W/m² | - |
| 1777845080 | 21.67° C | 29% | 1006.4 hPa | 0 mm | - | 55 W/m² | - |
| 1777844779 | 21.67° C | 28% | 1006.7 hPa | 0 mm | - | 55 W/m² | - |
| 1777844475 | 21.67° C | 29% | 1006.7 hPa | 0 mm | - | 55 W/m² | - |
| 1777844175 | 21.67° C | 29% | 1006.7 hPa | 0 mm | - | 55 W/m² | - |
| 1777843870 | 22.22° C | 28% | 1007 hPa | 0 mm | - | 130 W/m² | - |
| 1777843568 | 21.67° C | 28% | 1007 hPa | 0 mm | - | 314 W/m² | - |
| 1777843265 | 21.11° C | 32% | 1007 hPa | 0 mm | - | 243 W/m² | - |
| 1777842962 | 21.67° C | 35% | 1007 hPa | 0 mm | - | 184 W/m² | - |
| 1777842657 | 21.11° C | 35% | 1007 hPa | 0 mm | - | 67 W/m² | - |
| 1777842354 | 21.11° C | 34% | 1007.4 hPa | 0 mm | - | 81 W/m² | - |
| 1777842050 | 21.11° C | 34% | 1007.4 hPa | 0 mm | - | 78 W/m² | - |
| 1777841747 | 21.11° C | 34% | 1007.7 hPa | 0 mm | - | 84 W/m² | - |
| 1777841443 | 21.67° C | 34% | 1007.4 hPa | 0 mm | - | 148 W/m² | - |
| 1777841140 | 20.56° C | 35% | 1007.7 hPa | 0 mm | - | 317 W/m² | - |
| 1777840838 | 21.11° C | 32% | 1007.7 hPa | 0 mm | - | 501 W/m² | - |
| 1777840535 | 21.11° C | 35% | 1007.7 hPa | 0 mm | - | 557 W/m² | - |
| 1777840232 | 21.11° C | 36% | 1007.7 hPa | 0 mm | - | 565 W/m² | - |
| 1777839930 | 20.56° C | 33% | 1007.7 hPa | 0 mm | - | 87 W/m² | - |
| 1777839627 | 20.56° C | 32% | 1007.7 hPa | 0 mm | - | 595 W/m² | - |
| 1777839325 | 20.56° C | 36% | 1008.1 hPa | 0 mm | - | 443 W/m² | - |
* Rain latest hour (hover to see other rain measurements)
** Current wind speed in m/s (hover to see current wind gust speed)